This is the latest recevied weather packets stored in our database for station/object LA3SP-1. If no packets are shown the sender has not sent any weather packets the latest 10 day(s).
| Time | Temp. | Humidity | Pressure | Rain* | Wind** | Luminosity | Snow |
|---|---|---|---|---|---|---|---|
| 1777738312 | 5.56° C | 73% | 1006.2 hPa | 0 mm | - | - | - |
| 1777737109 | 5.56° C | 72% | 1006.4 hPa | 0 mm | - | - | - |
| 1777736508 | 5.56° C | 72% | 1006.4 hPa | 0 mm | - | - | - |
| 1777735906 | 6.11° C | 70% | 1006.6 hPa | 0 mm | - | - | - |
| 1777735305 | 6.11° C | 70% | 1006.5 hPa | 0 mm | - | - | - |
| 1777734102 | 6.11° C | 70% | 1006.9 hPa | 0 mm | - | - | - |
| 1777732900 | 6.67° C | 70% | 1007 hPa | 0 mm | - | - | - |
| 1777732298 | 6.67° C | 70% | 1007 hPa | 0 mm | - | - | - |
| 1777731697 | 6.67° C | 69% | 1006.7 hPa | 0 mm | - | - | - |
| 1777731095 | 6.67° C | 68% | 1006.6 hPa | 0 mm | - | - | - |
| 1777730494 | 7.22° C | 66% | 1006.4 hPa | 0 mm | - | - | - |
| 1777729291 | 7.78° C | 65% | 1006.6 hPa | 0 mm | - | - | - |
| 1777728089 | 8.33° C | 65% | 1006.7 hPa | 0 mm | - | - | - |
| 1777727487 | 7.78° C | 66% | 1006.7 hPa | 0 mm | - | - | - |
| 1777726886 | 7.78° C | 65% | 1007 hPa | 0 mm | - | - | - |
| 1777724480 | 8.33° C | 64% | 1007.1 hPa | 0 mm | - | - | - |
| 1777723879 | 8.33° C | 63% | 1007.2 hPa | 0 mm | - | - | - |
| 1777723277 | 8.33° C | 63% | 1007.4 hPa | 0 mm | - | - | - |
| 1777721473 | 8.33° C | 63% | 1007.4 hPa | 0 mm | - | - | - |
| 1777720270 | 8.33° C | 63% | 1007.4 hPa | 0 mm | - | - | - |
| 1777719669 | 7.78° C | 63% | 1007.4 hPa | 0 mm | - | - | - |
| 1777719067 | 7.22° C | 64% | 1007.4 hPa | 0 mm | - | - | - |
| 1777718466 | 7.22° C | 64% | 1007.6 hPa | 0 mm | - | - | - |
| 1777717865 | 7.22° C | 65% | 1007.4 hPa | 0 mm | - | - | - |
| 1777716662 | 6.11° C | 69% | 1007.8 hPa | 0 mm | - | - | - |
* Rain latest 24 hours (hover to see other rain measurements)
** Current wind speed in m/s (hover to see current wind gust speed)